Lynchburg, VA

10:46 AM EDT on June 28, 2017 (GMT -0400)
Lynchburg Regional-Glenn

Weather History for KLYH - January, 2013

Change the Weather History Date:

Saturday, January 19, 2013

  Actual Average Record
Temperature  
Mean Temperature 37 °F 35 °F  
Max Temperature 51 °F 45 °F 70 °F (1907)
Min Temperature 22 °F 25 °F -4 °F (1994)
Degree Days  
Heating Degree Days 28 30  
Month to date heating degree days 439 570  
Since 1 July heating degree days 2077 2315  
Cooling Degree Days 0 0  
Month to date cooling degree days 0 0  
Year to date cooling degree days 0 0  
Moisture  
Dew Point 26 °F    
Average Humidity 65    
Maximum Humidity 88    
Minimum Humidity 42    
Precipitation  
Precipitation 0.00 in 0.10 in 2.86 in (1936)
Month to date precipitation 4.93 1.91  
Year to date precipitation 4.93 1.91  
Snow  
Snow 0.00 in - - ()
Month to date snowfall 2.0  
Since 1 July snowfall 2.0  
Snow Depth T in    
Sea Level Pressure  
Sea Level Pressure 30.31 in    
Wind  
Wind Speed 7 mph (SSW)    
Max Wind Speed 14 mph    
Max Gust Speed -    
Visibility 10 miles    
Events      
T = Trace of Precipitation, MM = Missing Value Source: NWS Daily Summary

Daily Weather History Graph

Daily Weather History Graph

Search for Another Location

Airport or City:

Trip Planner

Search our weather history database for the weather conditions in past years. The results will help you decide how hot, cold, wet, or windy it might be!

Date:

Astronomy

Jan. 19, 2013 Rise Set
Actual Time 7:28 AM EST 5:27 PM EST
Civil Twilight 7:00 AM EST 5:55 PM EST
Nautical Twilight 6:28 AM EST 6:27 PM EST
Astronomical Twilight 5:57 AM EST 6:58 PM EST
Moon 11:51 AM EST (1/19) 1:02 AM EST (1/19)
Length of Visible Light 10h 55m
Length of Day
9h 59m
First Quarter, 57% of the Moon is Illuminated
Jan 19
First Quarter
Jan 26
Full
Feb 3
Last Quarter
Feb 10
New
Feb 17
First Quarter

Hourly Weather History & Observations

Time (EST) Temp. Windchill Dew Point Humidity Pressure Visibility Wind Dir Wind Speed Gust Speed Precip Events Conditions
12:54 AM 26.1 °F - 23.0 °F 88% 30.47 in 10.0 mi Calm Calm - N/A   Clear
1:54 AM 24.1 °F 19.7 °F 21.9 °F 91% 30.47 in 10.0 mi SW 3.5 mph - N/A   Clear
2:54 AM 25.0 °F 18.1 °F 21.9 °F 88% 30.45 in 10.0 mi SSW 5.8 mph - N/A   Clear
3:54 AM 25.0 °F - 21.9 °F 88% 30.45 in 10.0 mi Calm Calm - N/A   Clear
4:54 AM 25.0 °F 19.3 °F 21.9 °F 88% 30.44 in 10.0 mi SSW 4.6 mph - N/A   Clear
5:54 AM 24.1 °F 16.0 °F 21.0 °F 88% 30.44 in 10.0 mi SSW 6.9 mph - N/A   Clear
6:54 AM 26.1 °F 19.4 °F 23.0 °F 88% 30.44 in 10.0 mi SSW 5.8 mph - N/A   Clear
7:54 AM 28.0 °F 20.0 °F 23.0 °F 81% 30.43 in 10.0 mi SSW 8.1 mph - N/A   Clear
8:54 AM 30.9 °F 24.3 °F 25.0 °F 79% 30.43 in 10.0 mi SW 6.9 mph - N/A   Clear
9:54 AM 35.1 °F 30.1 °F 27.0 °F 72% 30.43 in 10.0 mi WSW 5.8 mph - N/A   Clear
10:54 AM 37.0 °F 29.3 °F 27.0 °F 67% 30.40 in 10.0 mi SSW 11.5 mph - N/A   Clear
11:54 AM 39.9 °F 34.5 °F 30.0 °F 68% 30.35 in 10.0 mi South 8.1 mph - N/A   Clear
12:54 PM 45.0 °F 41.2 °F 28.9 °F 53% 30.30 in 10.0 mi SSW 6.9 mph - N/A   Clear
1:54 PM 48.9 °F - 30.9 °F 50% 30.26 in 10.0 mi South 9.2 mph - N/A   Clear
2:54 PM 50.0 °F - 30.0 °F 46% 30.23 in 10.0 mi SSW 8.1 mph - N/A   Clear
3:54 PM 50.0 °F - 28.9 °F 44% 30.21 in 10.0 mi South 10.4 mph - N/A   Clear
4:54 PM 46.9 °F - 30.9 °F 54% 30.19 in 10.0 mi South 10.4 mph - N/A   Clear
5:54 PM 41.0 °F 35.8 °F 28.9 °F 62% 30.19 in 10.0 mi SSW 8.1 mph - N/A   Clear
6:54 PM 39.0 °F 34.0 °F 28.0 °F 65% 30.19 in 10.0 mi SSW 6.9 mph - N/A   Clear
7:54 PM 37.0 °F 31.6 °F 27.0 °F 67% 30.19 in 10.0 mi SSW 6.9 mph - N/A   Clear
8:54 PM 37.9 °F 33.5 °F 27.0 °F 65% 30.17 in 10.0 mi SW 5.8 mph - N/A   Clear
9:54 PM 36.0 °F 30.3 °F 27.0 °F 70% 30.15 in 10.0 mi SSW 6.9 mph - N/A   Clear
10:54 PM 35.1 °F 30.1 °F 27.0 °F 72% 30.12 in 10.0 mi SSW 5.8 mph - N/A   Clear
11:54 PM 35.1 °F 30.1 °F 27.0 °F 72% 30.09 in 10.0 mi SSW 5.8 mph - N/A   Clear